Вернуться в каталог

THOR ABLESTAR DEB

АктивенLEO
NORAD 159·DEBRIS·🇺🇸 United States

Запущен Jun 29, 1961 с Cape Canaveral Space Force Station

Loading…

Ближайшие Пролёты (ближайшие 24 часа)

TLE

СвежийSource: Space-Track

Эпоха: Sep 10, 2026, 16:27 UTC

1 00159U 61015AV  26253.68551410 -.00000008  00000-0  13905-3 0  9996
2 00159  65.5277  45.4847 0359180 127.1603 236.2796 13.03102882 91998

Отслеживайте THOR ABLESTAR DEB в реальном времени с AllMySat

Download on the App Store